Regional Weather Roundup
Issued by NWS

Home | Current Version | Previous Version | Graphics & Text | Print | Product List | Glossary On
Versions: 1 2 3 4 5 6 7 8 9 10 11 12 13 14 15 16 17 18 19 20 21 22 23 24 25 26 27 28 29 30 31 32 33 34 35 36 37 38 39 40 41 42 43 44 45 46 47 48 49 50
000
ASUS45 KPSR 242010
RWRAZ

ARIZONA REGIONAL HOURLY WEATHER ROUNDUP
NATIONAL WEATHER SERVICE PHOENIX AZ
100 PM MST THU APR 24 2014

NOTE: FAIR INDICATES FEW OR NO CLOUDS BELOW 12,000 FEET WITH NO
SIGNIFICANT WEATHER AND/OR OBSTRUCTIONS TO VISIBILITY.

AZZ001>003-036-242100-
NORTHWEST ARIZONA

CITY           SKY/WX    TMP DP  RH WIND       PRES   REMARKS
BULLHEAD CITY  SUNNY     84  12   6 SW8       29.90F
KINGMAN        SUNNY     77   4   6 SW15G23   30.00F
$$

AZZ004>008-015-016-018-242100-
NORTH CENTRAL ARIZONA

CITY           SKY/WX    TMP DP  RH WIND       PRES   REMARKS
GRAND CANYON   SUNNY     66   3   8 SW18G24   30.11F
WILLIAMS       SUNNY     66   1   7 W12       30.18F
PRESCOTT       SUNNY     73  12   9 SE10      30.04F
FLAGSTAFF      SUNNY     62   8  12 W14G21    30.13F
PAYSON         SUNNY     70   9   9 VRB7G15   30.09F
PAGE             N/A     68  13  12 MISG      30.04F
$$

AZZ009>014-017-242100-
NORTHEAST ARIZONA

CITY           SKY/WX    TMP DP  RH WIND       PRES   REMARKS
WINSLOW        SUNNY     69  13  11 CALM      30.06F
SAINT JOHNS    FAIR      68   5   8 E7        30.08F
WINDOW ROCK    MOSUNNY   65   6  10 VRB5      30.11F
SHOW LOW       MOSUNNY   64  10  12 NW5       30.13F
$$

AZZ023-242100-
GREATER PHOENIX AREA

CITY           SKY/WX    TMP DP  RH WIND       PRES   REMARKS
PHOENIX        PTSUNNY   86  11   6 VRB6      29.91F
BUCKEYE          N/A     82  18   9 S6        29.93F
GLENDALE       MOSUNNY   84  10   6 SW8       29.93F
LUKE AFB       NOT AVBL
DEER VALLEY    SUNNY     84   8   5 VRB7      29.92F
SCOTTSDALE     SUNNY     83  14   7 SE5       29.94F
MESA-FALCON    MOSUNNY   82  12   7 NW7       29.93F
MESA-GATEWAY   MOSUNNY   84  16   8 VRB3      29.94F
CHANDLER         N/A     84  14   7 VRB6      29.93F
$$

AZZ027-028-242100-
SOUTHWEST MARICOPA COUNTY AND PINAL COUNTY

CITY           SKY/WX    TMP DP  RH WIND       PRES   REMARKS
CASA GRANDE    SUNNY     86  25  10 S9        29.93F
GILA BEND      MOCLDY    88  18   7 W8G16     29.92F
$$

AZZ503-504-507>509-242100-
SOUTHEAST ARIZONA

CITY           SKY/WX    TMP DP  RH WIND       PRES   REMARKS
TUCSON         SUNNY     85  11   6 CALM      29.97F
DAVIS-MONTHAN  SUNNY     82  13   7 NW1       29.95F
RYAN FIELD       N/A     84  18   8 W15       29.96F
NOGALES        SUNNY     83  21  10 VRB7G20   30.01F
SIERRA VISTA   PTSUNNY   81  14   8 NW9       30.04F
DOUGLAS        SUNNY     80  15   8 S9        30.04F
SAFFORD        SUNNY     82  10   6 SW8       29.96F
$$

AZZ020-021-025-026-031-242100-
SOUTHWEST ARIZONA

CITY           SKY/WX    TMP DP  RH WIND       PRES   REMARKS
YUMA           PTSUNNY   89  16   7 S8        29.89F
$$

CAZ031-033-041-043-047-048-061-242100-
SOUTHERN CALIFORNIA

CITY           SKY/WX    TMP DP  RH WIND       PRES   REMARKS
DOWNTOWN L.A.  SUNNY     77  47  34 NW7       29.94F
L.A. AIRPORT   MOSUNNY   71  45  39 W14       29.97F
SAN DIEGO      MOSUNNY   69  51  52 SW12      29.99F
BURBANK        SUNNY     78  34  20 S8        29.95F
ONTARIO        MOSUNNY   78  40  25 W8        29.95F
RIVERSIDE      SUNNY     78  42  27 W8        29.94F
PALM SPRINGS   SUNNY     88  19   8 S8        29.89F
EL CENTRO NAS  MOSUNNY   88  29  12 E9        29.87F
IMPERIAL       SUNNY     88  31  13 MISG      29.87F
BLYTHE         SUNNY     86  17   8 VRB6      29.89F
NEEDLES        SUNNY     88   9   5 VRB7      29.90F
$$

NVZ020-UTZ003-242100-
SOUTHERN NEVADA-UTAH

CITY           SKY/WX    TMP DP  RH WIND       PRES   REMARKS
LAS VEGAS      SUNNY     79  12   8 S8        29.91F
SALT LAKE CITY PTSUNNY   64  19  17 S13       29.97F
$$

NMZ009-TXZ055-242100-
NEW MEXICO-WEST TEXAS

CITY           SKY/WX    TMP DP  RH WIND       PRES   REMARKS
ALBUQUERQUE    PTSUNNY   64  10  12 SW10      30.11F
EL PASO        MOSUNNY   77  12   8 SE5       30.04F
$$


........................KEY........................
SKY/WX - SKY CONDITION/WEATHER
TMP    - TEMPERATURE IN FAHRENHEIT
DP     - DEW POINT IN FAHRENHEIT
RH     - RELATIVE HUMIDITY IN PERCENT
WIND   - DIRECTION AND SPEED IN MILES PER HOUR (MPH)
VRB    - VARIABLE WIND DIRECTION
PRES   - MEAN SEA LEVEL PRESSURE IN INCHES OF MERCURY
         F - FALLING PRESSURE   R - RISING PRESSURE
         S - STEADY PRESSURE
VSB    - VISIBILITY IN MILES
HX     - HEAT INDEX IN FAHRENHEIT
WCI    - WIND CHILL INDEX IN FAHRENHEIT
TC     - TEMPERATURE IN CELSIUS WHICH IS ALSO KNOWN AS
         TEMPERATURE IN CENTIGRADE
AFB    - AIR FORCE BASE
         LUKE AFB IS LUKE AIR FORCE BASE
         DAVIS-MONTHAN IS DAVIS-MONTHAN AIR FORCE BASE
NAS    - NAVAL AIR STATION
         EL CENTRO NAS IS EL CENTRO NAVAL AIR STATION
N/A    - NOT AVAILABLE



USA.gov is the U.S. government's official web portal to all federal, state and local government web resources and services.